sat.trackr.live / text

‹ back to catalog

STARLINK-3282

NORAD 50177 · 2021-125X

PAYLOAD ACTIVE UNKNOWN

§ Identity

Operator
Country
US
Launch date
2021-12-18
Launch site
AFWTR
Launch vehicle
Mass (kg)
RCS (m²)

Purposes: comms

External: N2YO · Heavens-Above · Gunter

§ Orbital elements

Epoch: 2026-05-25T01:46:20.385120Z

Period
95.44 min
Inclination
53.2161°
Eccentricity
0.0001386
Mean motion
15.08837363 rev/d
Perigee alt
538.8 km
Apogee alt
540.7 km
Semi-major
6,917.9 km
B*
1.6033e-5
RAAN
266.2171°
Arg perigee
102.9601°
Mean anomaly
257.1546°
Rev number
24,813

§ Raw data

STARLINK-32821 50177U 21125X   26145.07384705 -.00000033  00000+0  16033-4 0  99962 50177  53.2161 266.2171 0001386 102.9601 257.1546 15.08837363248134

JSON: /api/v1/satellites/50177 · /tle

For live sub-satellite position, see the globe view (requires WebGL).

§ Visibility from observer

Set your observer location to see the next 7 days of passes ≥ 10°. The values pass through the URL so the page stays shareable.

No JS? Fill the form by hand. The geolocation button needs JavaScript.